Location: Newark
(50.0306°N, 2.3272°E)
Time: 18:36:28
(UTC+00:00)

A-11 Canister half - Pass Details

Date: 14 December 2019
Orbit: 1525 x 1684 km, 47.3° (Epoch: 19 January)

Event Time Altitude Azimuth Distance (km) Brightness Sun altitude
Rises 03:34:20 0° 199° (SSW) 4,876 - -38.4°
Reaches altitude 10° 03:38:01 10° 189° (S) 3,909 - -37.8°
Exits shadow 03:39:44 15° 182° (S) 3,511 10.7 -37.5°
Maximum altitude 03:46:06 29° 135° (SE) 2,737 10.5 -36.5°
Drops below altitude 10° 03:54:15 10° 81° (E) 3,950 11.9 -35.2°
Sets 03:57:57 0° 71° (ENE) 4,935 12.6 -34.6°
